Weather History for Manitowoc, WI

Change the Weather History Date:

Tuesday, June 10, 2014

  Actual Average Record
Temperature  
Mean Temperature 58 °F -  
Max Temperature 64 °F 72 °F 92 °F (1973)
Min Temperature 52 °F 50 °F 35 °F (1980)
Degree Days  
Heating Degree Days 7    
Growing Degree Days 8 (Base 50)    
Moisture  
Dew Point 46 °F    
Average Humidity 63    
Maximum Humidity 77    
Minimum Humidity 52    
Precipitation  
Precipitation 0.00 in - - ()
Sea Level Pressure  
Sea Level Pressure 30.03 in    
Wind  
Wind Speed 4 mph (NE)    
Max Wind Speed 9 mph    
Max Gust Speed -    
Visibility 10 miles    
Events      
Averages and records for this station are not official NWS values.
T = Trace of Precipitation, MM = Missing Value Source: NWS Daily Summary

Daily Weather History Graph

Daily Weather History Graph

Search for Another Location

Airport:

Trip Planner

Search our weather history database for the weather conditions in past years. The results will help you decide how hot, cold, wet, or windy it might be!

Date:

Astronomy

Jun. 10, 2014 Rise Set
Actual Time 5:07 AM CDT 8:33 PM CDT
Civil Twilight 4:31 AM CDT 9:09 PM CDT
Nautical Twilight 3:43 AM CDT 9:57 PM CDT
Astronomical Twilight 2:43 AM CDT 10:57 PM CDT
Moon 5:53 PM CDT (6/10) 3:18 AM CDT (6/10)
Length of Visible Light 16h 38m
Length of Day
15h 26m
Waxing Gibbous, 92% of the Moon is Illuminated
Jun 10
Waxing Gibbous
Jun 12
Full
Jun 19
Last Quarter
Jun 27
New
Jul 5
First Quarter

Hourly Weather History & Observations

Time (CDT) Temp. Dew Point Humidity Pressure Visibility Wind Dir Wind Speed Gust Speed Precip Events Conditions
12:56 AM 53.1 °F 42.1 °F 66% 30.06 in 10.0 mi NE 3.5 mph - N/A   Clear
1:56 AM 52.0 °F 44.1 °F 74% 30.06 in 10.0 mi Calm Calm - N/A   Clear
2:56 AM 52.0 °F 44.1 °F 74% 30.04 in 10.0 mi Calm Calm - N/A   Clear
4:56 AM 52.0 °F 45.0 °F 77% 30.06 in 10.0 mi NNE 3.5 mph - N/A   Clear
5:56 AM 52.0 °F 45.0 °F 77% 30.06 in 10.0 mi NNE 4.6 mph - N/A   Clear
7:56 AM 55.9 °F 46.9 °F 72% 30.06 in 10.0 mi NE 4.6 mph - N/A   Clear
8:56 AM 61.0 °F 48.9 °F 64% 30.06 in 10.0 mi NE 6.9 mph - N/A   Clear
9:56 AM 61.0 °F 48.0 °F 62% 30.06 in 10.0 mi ENE 8.1 mph - N/A   Clear
10:56 AM 62.1 °F 48.0 °F 60% 30.06 in 10.0 mi East 8.1 mph - N/A   Clear
11:56 AM 63.0 °F 48.9 °F 60% 30.06 in 10.0 mi ENE 6.9 mph - N/A   Clear
1:56 PM 64.0 °F 46.0 °F 52% 30.03 in 10.0 mi ENE 9.2 mph - N/A   Clear
2:56 PM 63.0 °F 45.0 °F 52% 30.04 in 10.0 mi ENE 4.6 mph - N/A   Clear
3:56 PM 63.0 °F 45.0 °F 52% 30.04 in 10.0 mi East 5.8 mph - N/A   Clear
4:56 PM 64.0 °F 46.9 °F 54% 30.02 in 10.0 mi East 4.6 mph - N/A   Clear
5:56 PM 62.1 °F 46.0 °F 56% 30.01 in 10.0 mi ENE 4.6 mph - N/A   Clear
6:56 PM 61.0 °F 46.0 °F 58% 30.01 in 10.0 mi NE 5.8 mph - N/A   Clear
7:56 PM 60.1 °F 46.0 °F 60% 30.00 in 10.0 mi NE 6.9 mph - N/A   Clear
8:56 PM 59.0 °F 46.0 °F 62% 29.99 in 10.0 mi NE 4.6 mph - N/A   Clear
9:56 PM 59.0 °F 46.0 °F 62% 29.99 in 10.0 mi NE 5.8 mph - N/A   Scattered Clouds
10:56 PM 57.9 °F 46.0 °F 65% 29.97 in 10.0 mi NE 3.5 mph - N/A   Scattered Clouds
11:56 PM 57.9 °F 46.9 °F 67% 29.95 in 10.0 mi Variable 4.6 mph - N/A   Partly Cloudy